[[{"header":{"parameterUnit":"m.s-1","parameterCategory":1,"la1":30.2991,"la2":30.254,"lo1":-89.0895,"lo2":-89.0444,"dy":0.0017,"dx":0.0017,"nx":28,"ny":28,"refTime":"2024-12-03T09:00:00:Z","depth":0,"parameterNumber":2,"parameterNumberName":"U-component_of_WINDS"},"data":[0,0,0,0,0,0,0,0,0,0,0,0,0,0,0,0,0,0,0,0,0,0,0,0,0,0,0,0,0,0,0,0,0,0,0,0,0,0,0,0,0,0,0,0,0,0,0,0,0,0,0,0,0,0,0,0,0,0,-0.1248,-0.1249,0,-0.1299,-0.13,-0.13,-0.1308,-0.1307,-0.1307,-0.1306,-0.1359,-0.1361,-0.1363,0,0,0,0,0,0,0,0,0,0,0,0,0,-0.1159,-0.116,-0.1248,-0.1249,-0.125,-0.1299,-0.13,-0.13,-0.1308,-0.1307,-0.1307,-0.1306,-0.1359,-0.1361,-0.1363,0,0,0,0,0,0,0,0,0,0,0,0,0,-0.1202,-0.1161,-0.1248,-0.1259,-0.1261,-0.1299,-0.13,-0.13,-0.1308,-0.1307,-0.1307,-0.1306,-0.1358,-0.1361,-0.1363,-0.1394,0,0,-0.1372,-0.1373,0,0,0,0,0,0,0,0,-0.12,-0.1205,-0.1257,-0.1259,-0.126,-0.1296,-0.1287,-0.1332,-0.1308,-0.129,-0.1306,-0.1306,-0.1339,-0.1343,-0.1354,-0.1397,-0.1399,-0.1372,-0.1374,-0.1375,-0.1376,0,0,0,0,0,0,0,-0.1197,-0.1203,-0.1268,-0.1258,-0.126,-0.1262,-0.1267,-0.1296,-0.1318,-0.1292,-0.1292,-0.1298,-0.134,-0.1352,-0.1356,-0.14,-0.1372,-0.1374,-0.1376,-0.1377,-0.1469,-0.1469,0,0,0,0,0,0,-0.1192,-0.1201,-0.1267,-0.127,-0.1228,-0.1264,-0.127,-0.1286,-0.1318,-0.1322,-0.1299,-0.1298,-0.1347,-0.1352,-0.1357,-0.1395,-0.1375,-0.1377,-0.1379,-0.1468,-0.1469,-0.147,0,0,0,0,0,0,-0.119,-0.1197,-0.1265,-0.1236,-0.1244,-0.1266,-0.1284,-0.1287,-0.1299,-0.1323,-0.1327,-0.1307,-0.1347,-0.1354,-0.1385,-0.1397,-0.1379,-0.1381,-0.1467,-0.1468,-0.1469,-0.1471,0,0,0,0,0,0,-0.1187,-0.1197,-0.1209,-0.1236,-0.1246,-0.1291,-0.1284,-0.1288,-0.1303,-0.1303,-0.1331,-0.1335,-0.1347,-0.138,-0.1387,-0.1401,-0.1383,-0.1466,-0.1467,-0.1469,-0.147,-0.1472,-0.1474,0,0,0,0,0,-0.1184,-0.1208,-0.1209,-0.1217,-0.1261,-0.1292,-0.1298,-0.131,-0.1304,-0.1317,-0.1332,-0.1335,-0.1394,-0.1384,-0.1391,-0.1406,-0.1465,-0.1467,-0.1469,-0.1469,-0.1472,-0.1474,0,0,0,0,0,0,-0.1183,-0.1212,-0.1214,-0.1247,-0.1267,-0.1293,-0.1309,-0.1313,-0.1335,-0.1334,-0.1348,-0.1355,-0.1385,-0.1398,-0.1386,-0.1436,-0.1429,-0.1433,-0.1427,-0.143,-0.1431,-0.1428,-0.1386,0,0,0,0,0,-0.1186,-0.1208,-0.1232,-0.126,-0.1269,-0.1287,-0.1301,-0.1309,-0.133,-0.1339,-0.1356,-0.1377,-0.14,-0.1416,-0.1438,-0.1471,-0.1477,-0.1485,-0.1487,-0.1488,-0.1491,-0.1509,-0.1513,-0.1475,-0.1475,-0.1475,0,0,-0.1194,-0.1212,-0.1226,-0.126,-0.1276,-0.1299,-0.1295,-0.1319,-0.1336,-0.1343,-0.1373,-0.1386,-0.141,-0.1442,-0.1457,-0.1454,-0.1503,-0.1491,-0.1492,-0.1494,-0.1511,-0.1515,-0.1518,-0.1476,-0.1476,-0.1476,0,0,-0.122,-0.1236,-0.126,-0.1276,-0.13,-0.1312,-0.1317,-0.1343,-0.1352,-0.1382,-0.1387,-0.1407,-0.1447,-0.1464,-0.1478,-0.1507,-0.1511,-0.1514,-0.1525,-0.1542,-0.1545,-0.1548,-0.1558,-0.1562,-0.1517,-0.1517,-0.1517,0,-0.1226,-0.1261,-0.1272,-0.1296,-0.1311,-0.1316,-0.1341,-0.1356,-0.1386,-0.1396,-0.1392,-0.1442,-0.1458,-0.1494,-0.1501,-0.1512,-0.1518,-0.1512,-0.1544,-0.1547,-0.1549,-0.1559,-0.1563,-0.1517,-0.1517,-0.1517,-0.1517,0,-0.1268,-0.1291,-0.1308,-0.1336,-0.1353,-0.1377,-0.1391,-0.1406,-0.1412,-0.1424,-0.1454,-0.1474,-0.15,-0.1509,-0.1515,-0.1545,-0.1542,-0.1541,-0.1534,-0.1553,-0.1563,-0.1567,-0.1518,-0.1518,-0.1518,-0.1518,0,0,-0.1296,-0.1329,-0.1335,-0.1348,-0.1374,-0.1392,-0.1416,-0.1441,-0.1454,-0.1474,-0.1494,-0.1527,-0.1525,-0.1541,-0.1548,-0.1563,-0.1585,-0.156,-0.1561,-0.1564,-0.1619,-0.162,-0.1624,-0.1587,-0.1587,-0.1588,-0.1617,0,-0.1325,-0.1368,-0.1378,-0.1414,-0.1436,-0.144,-0.1461,-0.1479,-0.149,-0.151,-0.1522,-0.1545,-0.1541,-0.155,-0.1565,-0.1579,-0.1596,-0.1577,-0.1606,-0.1607,-0.16,-0.163,-0.1632,-0.1658,-0.1621,-0.1621,-0.1622,0,-0.1366,-0.1386,-0.1424,-0.1446,-0.1456,-0.1474,-0.1497,-0.1516,-0.1536,-0.1543,-0.1559,-0.1565,-0.1589,-0.158,-0.1614,-0.1601,-0.1613,-0.1621,-0.1622,-0.1626,-0.1616,-0.1635,-0.1666,-0.167,-0.1628,-0.1627,-0.1627,0,-0.1382,-0.1419,-0.1447,-0.1457,-0.1484,-0.1496,-0.1508,-0.1528,-0.1542,-0.1562,-0.1571,-0.1594,-0.1606,-0.1624,-0.1635,-0.1627,-0.1668,-0.166,-0.1674,-0.1674,-0.1683,-0.1683,-0.1718,-0.169,-0.169,-0.169,-0.169,0,-0.1415,-0.1438,-0.1455,-0.1472,-0.1497,-0.1508,-0.1533,-0.1545,-0.1562,-0.1581,-0.1586,-0.1604,-0.1618,-0.1637,-0.1646,-0.1672,-0.1678,-0.1684,-0.1687,-0.1684,-0.1684,-0.1693,-0.1692,-0.1691,-0.1691,-0.1691,-0.169,0,-0.1439,-0.1451,-0.1481,-0.1503,-0.1509,-0.1527,-0.1546,-0.1562,-0.1572,-0.1596,-0.1603,-0.1619,-0.1642,-0.1655,-0.1684,-0.169,-0.1719,-0.172,-0.1712,-0.1713,-0.1727,-0.1726,-0.177,-0.1777,-0.1744,-0.1744,-0.1745,0,-0.1459,-0.1477,-0.15,-0.1513,-0.1524,-0.1545,-0.1559,-0.157,-0.1584,-0.1607,-0.1621,-0.1644,-0.1663,-0.1699,-0.1714,-0.1736,-0.1738,-0.1752,-0.1741,-0.1738,-0.1738,-0.1737,-0.1739,-0.1754,-0.1754,-0.1755,-0.1755,0,-0.1493,-0.1498,-0.1517,-0.1539,-0.1555,-0.1573,-0.159,-0.16,-0.1614,-0.1629,-0.1653,-0.1667,-0.1696,-0.1719,-0.1742,-0.1754,-0.1756,-0.1758,-0.1762,-0.176,-0.1755,-0.1758,-0.1718,-0.1757,-0.1757,-0.1757,-0.1756,-0.1756,-0.1516,-0.1532,-0.155,-0.1572,-0.1585,-0.1601,-0.1617,-0.1629,-0.1649,-0.1673,-0.1677,-0.1702,-0.172,-0.1751,-0.1763,-0.1782,-0.1779,-0.1786,-0.1788,-0.1789,-0.179,-0.1751,-0.1786,-0.1786,-0.1786,-0.1786,-0.1786,0,-0.1551,-0.1562,-0.1582,-0.1605,-0.1622,-0.1622,-0.1641,-0.1655,-0.1676,-0.1693,-0.1711,-0.1737,-0.1758,-0.1774,-0.1796,-0.1808,-0.181,-0.1813,-0.1813,-0.1815,-0.1791,-0.1785,-0.1811,-0.1811,-0.1811,-0.1811,-0.1811,-0.1811,-0.1571,-0.1597,-0.1604,-0.1636,-0.1648,-0.1672,-0.1682,-0.1696,-0.171,-0.1738,-0.1756,-0.1765,-0.1781,-0.1804,-0.1823,-0.1827,-0.1835,-0.1839,-0.1843,-0.182,-0.1817,-0.1815,-0.1809,-0.184,-0.184,-0.1866,-0.1866,-0.1866]},{"header":{"parameterUnit":"m.s-1","parameterCategory":1,"la1":30.2991,"la2":30.254,"lo1":-89.0895,"lo2":-89.0444,"dy":0.0017,"dx":0.0017,"nx":28,"ny":28,"refTime":"2024-12-03T09:00:00:Z","depth":0,"parameterNumber":3,"parameterNumberName":"V-component_of_WINDS"},"data":[0,0,0,0,0,0,0,0,0,0,0,0,0,0,0,0,0,0,0,0,0,0,0,0,0,0,0,0,0,0,0,0,0,0,0,0,0,0,0,0,0,0,0,0,0,0,0,0,0,0,0,0,0,0,0,0,0,0,-5.0022,-5.0024,0,-5.0187,-5.0189,-5.0191,-5.0158,-5.0155,-5.0152,-5.015,-5.0311,-5.0318,-5.0325,0,0,0,0,0,0,0,0,0,0,0,0,0,-4.9672,-4.9679,-5.0022,-5.0024,-5.0026,-5.0187,-5.0189,-5.0191,-5.0159,-5.0155,-5.0152,-5.0148,-5.0309,-5.0317,-5.0325,0,0,0,0,0,0,0,0,0,0,0,0,0,-4.9829,-4.9681,-5.0022,-5.0029,-5.0032,-5.0186,-5.0189,-5.0192,-5.016,-5.0155,-5.0151,-5.0146,-5.0306,-5.0316,-5.0327,-5.0481,0,0,-5.0359,-5.0364,0,0,0,0,0,0,0,0,-4.982,-4.9842,-5.0026,-5.0029,-5.0032,-5.0148,-5.0125,-5.0289,-5.0161,-5.0111,-5.0149,-5.0144,-5.026,-5.0274,-5.0314,-5.0489,-5.0496,-5.036,-5.0366,-5.0371,-5.0374,0,0,0,0,0,0,0,-4.9809,-4.9835,-5.0087,-5.0029,-5.0033,-5.0022,-5.004,-5.0156,-5.0208,-5.0115,-5.0113,-5.0133,-5.026,-5.0304,-5.0318,-5.0498,-5.036,-5.0369,-5.0376,-5.038,-5.0808,-5.0813,0,0,0,0,0,0,-4.9797,-4.9826,-5.0082,-5.0092,-4.9913,-5.0032,-5.0052,-5.0115,-5.0207,-5.0217,-5.0137,-5.0131,-5.0288,-5.0306,-5.0323,-5.0511,-5.0371,-5.0381,-5.0387,-5.0803,-5.0809,-5.0815,0,0,0,0,0,0,-4.9789,-4.982,-5.0075,-4.9959,-4.999,-5.0043,-5.0114,-5.0121,-5.0164,-5.0224,-5.0232,-5.0173,-5.0285,-5.0309,-5.0443,-5.0516,-5.0386,-5.0395,-5.0797,-5.0805,-5.0812,-5.0888,0,0,0,0,0,0,-4.9779,-4.9817,-4.9878,-4.996,-4.9997,-5.0194,-5.0119,-5.0127,-5.0184,-5.0178,-5.0259,-5.0268,-5.0284,-5.0427,-5.0454,-5.0529,-5.0404,-5.0791,-5.0801,-5.081,-5.0879,-5.0897,-5.0913,0,0,0,0,0,-4.9767,-4.9891,-4.9882,-4.9913,-5.0074,-5.0199,-5.0219,-5.0237,-5.019,-5.0251,-5.0289,-5.0266,-5.0504,-5.0441,-5.0471,-5.055,-5.0786,-5.0798,-5.0809,-5.0872,-5.0894,-5.0912,0,0,0,0,0,0,-4.9814,-4.9902,-4.9892,-5.0047,-5.0116,-5.0193,-5.027,-5.0259,-5.0341,-5.0331,-5.0347,-5.0366,-5.0503,-5.0539,-5.0468,-5.0705,-5.0638,-5.0656,-5.0676,-5.0697,-5.0714,-5.0702,-5.0412,0,0,0,0,0,-4.9843,-4.9939,-5.0009,-5.0139,-5.0175,-5.0217,-5.0271,-5.0279,-5.035,-5.0378,-5.0426,-5.0493,-5.0583,-5.0642,-5.0728,-5.0884,-5.0901,-5.0953,-5.097,-5.0983,-5.0998,-5.1084,-5.1108,-5.0852,-5.0852,-5.0852,0,0,-4.9902,-4.9962,-5.0021,-5.015,-5.0204,-5.0302,-5.0241,-5.0346,-5.0418,-5.0393,-5.0524,-5.0561,-5.0637,-5.0784,-5.085,-5.0819,-5.1073,-5.0998,-5.1008,-5.1016,-5.1098,-5.1122,-5.1144,-5.0859,-5.0858,-5.0857,0,0,-5.0061,-5.0116,-5.0231,-5.0287,-5.0371,-5.0399,-5.0426,-5.0505,-5.053,-5.0662,-5.0646,-5.073,-5.0885,-5.094,-5.0989,-5.117,-5.1152,-5.1197,-5.1284,-5.1367,-5.1388,-5.1406,-5.147,-5.1493,-5.1211,-5.1212,-5.1212,0,-5.0124,-5.0272,-5.0291,-5.0399,-5.0455,-5.044,-5.0556,-5.0608,-5.0715,-5.0753,-5.0717,-5.0912,-5.0962,-5.1121,-5.1166,-5.1205,-5.1236,-5.1188,-5.1384,-5.1402,-5.1419,-5.1481,-5.1505,-5.1217,-5.1216,-5.1216,-5.1215,0,-5.0346,-5.0448,-5.0531,-5.0638,-5.0703,-5.0814,-5.0848,-5.0912,-5.0914,-5.0944,-5.1079,-5.1139,-5.1237,-5.1275,-5.1277,-5.1435,-5.1413,-5.138,-5.1314,-5.1448,-5.1507,-5.153,-5.1224,-5.1222,-5.1221,-5.1219,0,0,-5.0538,-5.0655,-5.0685,-5.0734,-5.0826,-5.0904,-5.1014,-5.1113,-5.1168,-5.1241,-5.1333,-5.1465,-5.1436,-5.1491,-5.1498,-5.1571,-5.1711,-5.1529,-5.1531,-5.1562,-5.1889,-5.1914,-5.1942,-5.17,-5.1704,-5.1708,-5.1883,0,-5.0706,-5.0903,-5.0923,-5.1098,-5.1193,-5.118,-5.1275,-5.1341,-5.1372,-5.1455,-5.1489,-5.1583,-5.1537,-5.157,-5.1642,-5.1679,-5.1777,-5.1667,-5.1784,-5.1788,-5.1766,-5.1972,-5.1998,-5.2161,-5.1906,-5.191,-5.1913,0,-5.0928,-5.1012,-5.1197,-5.1277,-5.1317,-5.1403,-5.1496,-5.1576,-5.165,-5.1667,-5.173,-5.1728,-5.1839,-5.1768,-5.1921,-5.1846,-5.1894,-5.192,-5.1927,-5.1938,-5.1859,-5.199,-5.2213,-5.2238,-5.1949,-5.1946,-5.1943,0,-5.1051,-5.1209,-5.1341,-5.1383,-5.1479,-5.154,-5.1582,-5.1651,-5.171,-5.179,-5.1828,-5.1918,-5.1968,-5.2038,-5.206,-5.2006,-5.2212,-5.2143,-5.2229,-5.2228,-5.2273,-5.227,-5.2507,-5.2303,-5.2303,-5.2303,-5.2302,0,-5.1236,-5.135,-5.1398,-5.1479,-5.1606,-5.1627,-5.1751,-5.179,-5.1852,-5.1939,-5.1932,-5.2013,-5.2037,-5.2122,-5.214,-5.2264,-5.2286,-5.2302,-5.2306,-5.2304,-5.2302,-5.2336,-5.2325,-5.2309,-5.2308,-5.2306,-5.2305,0,-5.1395,-5.1432,-5.1575,-5.1655,-5.1677,-5.1768,-5.1835,-5.1912,-5.1942,-5.2053,-5.2079,-5.2126,-5.2226,-5.2256,-5.2374,-5.2386,-5.2532,-5.2524,-5.2508,-5.2508,-5.2593,-5.2585,-5.2861,-5.2899,-5.267,-5.2672,-5.2673,0,-5.1512,-5.16,-5.169,-5.1749,-5.1795,-5.189,-5.195,-5.1974,-5.2037,-5.2128,-5.2194,-5.2293,-5.2374,-5.2533,-5.2577,-5.2667,-5.2662,-5.2753,-5.2676,-5.2671,-5.2664,-5.2659,-5.2668,-5.2768,-5.277,-5.2772,-5.2774,0,-5.1715,-5.1729,-5.1818,-5.1914,-5.1987,-5.2063,-5.2135,-5.2183,-5.2217,-5.2288,-5.2392,-5.2454,-5.2577,-5.2676,-5.2768,-5.2809,-5.2797,-5.2798,-5.2823,-5.2821,-5.2809,-5.2817,-5.2548,-5.2791,-5.279,-5.2788,-5.2787,-5.2787,-5.1856,-5.1934,-5.2011,-5.211,-5.2168,-5.2236,-5.2313,-5.2355,-5.2442,-5.2546,-5.2554,-5.2666,-5.2737,-5.286,-5.2906,-5.2993,-5.2966,-5.3001,-5.301,-5.3019,-5.3027,-5.2795,-5.3009,-5.3009,-5.3008,-5.3008,-5.3007,0,-5.2059,-5.2108,-5.22,-5.2303,-5.2381,-5.2366,-5.2446,-5.2511,-5.2611,-5.2679,-5.276,-5.2879,-5.2974,-5.3026,-5.312,-5.318,-5.3177,-5.3204,-5.32,-5.3209,-5.3045,-5.3014,-5.3205,-5.3205,-5.3205,-5.3205,-5.3205,-5.3205,-5.2174,-5.2306,-5.2329,-5.2489,-5.2536,-5.2648,-5.2695,-5.2758,-5.2812,-5.2947,-5.3027,-5.3061,-5.3122,-5.3222,-5.3308,-5.332,-5.3356,-5.3386,-5.3396,-5.3241,-5.3221,-5.3202,-5.3173,-5.3394,-5.3394,-5.3553,-5.3554,-5.3556]}]]